STARLINK-35456

Last updated on Mon Oct 20 2025 00:02:07 GMT+0000 (Coordinated Universal Time)

1 65867U 25223P 25292.25002315 -.01905763 00000+0 -21778-1 0 9992 2 65867 53.1600 234.9617 0001214 83.1716 33.2595 15.64688504 3732
UTC large
Height (km)
Speed (km/s)
/
Latitude / Longitude
Inclination (degrees)
Orbital Period (minutes)
Azimuth
Elevation
Range (km)
Doppler Factor

Next 0 passes for location: London (51.5072 / 0.1276)

Sorry there are no passes over London.